SCP
0 0 0 0 0 0 0 0 0 0 0 0 0 0 0 0 0 0 0 0 1 1 1 0 0 0 1 1 2 2 2 2 2 2 1 1 0 0 0 0 0 0 0 0
0 0 0 0 0 0 0 0 0 0 0 0 0 0 0 0 0 0 0 0 0 0 0 0 0 1 1 1 1 2 2 2 2 1 1 1 1 0 0 0 0 0 0 0
0 0 0 0 0 0 0 0 0 0 0 0 0 0 0 0 0 0 0 0 0 0 0 0 0 0 0 1 1 1 1 1 1 1 1 1 1 1 1 0 0 0 0 0
0 0 0 0 0 0 0 0 0 0 0 0 0 0 0 0 0 0 0 0 0 0 0 0 0 0 0 0 0 0 0 0 0 0 0 0 0 1 1 0 0 0 0 0
0 0 0 0 0 0 0 0 0 0 0 0 0 0 0 0 0 0 0 0 0 0 0 0 0 0 0 0 0 0 0 0 0 0 0 0 0 0 0 0 0 0 0 0
0 0 0 0 0 0 0 0 0 0 0 0 0 0 0 0 0 0 0 0 0 0 -0 -0 0 0 0 0 0 0 0 0 0 0 0 0 0 0 0 0 0 0 0 0
0 0 0 0 0 0 0 0 0 0 0 0 0 0 0 0 0 0 0 0 0 0 0 0 0 0 0 0 0 0 0 0 0 0 0 0 0 0 0 0 0 0 0 0
0 0 0 0 0 0 0 0 0 0 0 0 0 0 0 0 0 0 0 0 0 0 0 0 0 0 0 0 0 0 0 0 0 0 0 0 0 0 0 0 0 0 0 0
0 0 0 0 0 0 0 0 0 0 0 0 0 0 0 0 0 0 0 0 0 0 0 0 0 0 0 0 0 0 0 0 0 0 0 0 0 0 0 0 0 0 0 0
0 0 0 0 0 0 0 0 0 0 0 0 0 0 0 0 0 0 0 0 0 0 0 0 0 0 0 0 0 0 0 0 0 0 0 0 0 0 0 0 0 0 0 0
0 0 0 0 0 0 0 0 0 0 0 0 0 0 0 0 0 0 0 0 0 0 0 0 0 0 0 0 0 0 0 0 0 0 0 0 0 0 0 0 0 0 0 0
0 0 0 0 0 0 0 0 0 0 0 0 0 0 0 0 0 0 0 0 0 0 0 0 0 0 0 0 0 0 0 0 0 0 0 0 0 0 0 0 0 0 0 0
0 0 0 0 0 0 0 0 0 0 0 0 0 0 0 0 0 0 0 0 0 0 0 0 0 0 0 0 0 0 0 0 0 0 0 0 0 0 0 0 0 0 0 0
0 0 0 0 0 0 0 0 0 0 0 0 0 0 0 0 0 0 0 0 0 0 0 0 0 0 0 0 0 0 0 0 0 0 0 0 0 0 0 0 0 0 0 0
0 0 0 0 0 0 0 0 0 0 0 0 0 0 0 0 0 0 0 0 0 0 0 0 0 0 0 0 0 0 0 0 0 0 0 0 0 0 0 0 0 0 0 0
0 0 0 0 0 0 0 0 0 0 0 0 0 0 0 0 0 0 0 0 0 0 0 0 0 0 0 0 0 0 0 0 0 0 0 0 0 0 0 0 0 0 0 0
0 0 0 0 0 0 0 0 0 0 0 0 0 0 0 0 0 0 0 0 0 0 0 0 0 0 0 0 0 0 0 0 0 0 0 0 0 0 0 0 0 0 0 0
0 0 0 0 0 0 0 0 0 0 0 0 0 0 0 0 0 0 0 0 0 0 0 0 0 0 0 0 0 0 0 0 0 0 0 0 0 0 0 0 0 0 0 0
0 0 0 0 0 0 0 0 0 0 0 0 0 0 0 0 0 0 0 0 0 0 0 0 0 0 0 0 0 0 0 0 0 0 0 0 0 0 0 0 0 0 0 0
0 0 0 0 0 0 0 0 0 0 0 0 0 0 0 0 0 0 0 0 0 0 0 0 0 0 0 0 0 0 0 0 0 0 0 0 0 0 0 0 0 0 0 0
0 0 0 0 0 0 0 0 0 0 0 0 0 0 0 0 0 0 0 0 0 0 0 0 0 0 0 0 0 0 0 0 0 0 0 0 0 0 0 0 0 0 0 0
0 0 0 0 0 0 0 0 0 0 0 0 0 0 0 0 0 0 0 0 0 0 0 0 0 0 0 0 0 0 0 0 0 0 0 0 0 0 0 0 0 0 0 0
0 0 0 0 0 0 0 0 0 0 0 0 0 0 0 0 0 0 0 0 0 0 0 0 0 0 0 0 0 0 0 0 0 0 0 0 0 0 0 0 0 0 0 0
0 0 0 0 0 0 0 0 0 0 0 0 0 0 0 0 0 0 0 0 0 0 0 0 0 0 0 0 0 0 0 0 0 0 0 0 0 0 0 0 0 0 0 0
0 0 0 0 0 0 0 0 0 0 0 0 0 0 0 0 0 0 0 0 0 0 0 0 0 0 0 0 0 0 0 0 0 0 0 0 0 0 0 0 0 0 0 0
0 0 0 0 0 0 0 0 0 0 0 0 0 0 0 0 0 0 0 0 0 0 0 0 0 0 0 0 0 0 0 0 0 0 0 0 0 0 0 0 0 0 0 0
0 0 0 0 0 0 0 0 0 0 0 0 0 0 0 0 0 0 0 0 0 0 0 0 0 0 0 0 0 0 0 0 0 0 0 0 0 0 0 0 0 0 0 0
Wind_Speed
3 8 11 14 16 16 13 9 7 7 8 14 17 16 15 13 12 13 12 10 8 6 5 6 5 5 2 2 3 5 6 5 2 3 3 4 4 4 4 5 6 5 5 5
4 9 13 16 19 17 13 12 10 9 8 14 15 13 15 16 15 14 13 13 12 12 12 11 10 9 9 6 5 5 5 4 1 1 1 2 3 3 3 4 4 4 5 5
3 1 5 12 13 11 8 10 9 9 10 15 18 18 14 14 15 13 11 11 12 11 11 10 10 10 11 10 10 10 8 6 5 3 4 4 3 2 1 2 2 4 5 5
2 5 7 3 4 6 5 8 10 9 11 14 16 15 7 8 13 11 9 8 8 8 8 7 7 8 9 9 10 9 8 7 6 5 5 5 5 4 3 2 1 2 4 5
3 4 2 3 3 3 4 3 9 11 13 15 17 10 5 11 15 10 5 5 5 5 5 6 7 6 7 8 7 7 6 5 5 5 5 5 5 4 3 2 2 1 2 3
4 4 2 4 6 2 2 1 7 10 12 14 14 9 9 16 17 11 5 3 4 4 5 6 5 6 7 6 6 5 4 4 4 4 4 4 4 4 3 2 2 2 2 2
4 3 1 4 6 4 2 4 9 8 9 9 6 5 12 17 14 8 3 2 4 5 4 3 3 5 6 5 4 3 3 4 4 4 4 4 4 4 3 3 4 4 4 4
3 3 3 3 2 2 3 4 5 7 7 8 9 11 13 13 12 8 3 1 3 3 2 2 2 4 4 4 3 2 3 4 4 5 5 5 5 5 5 5 6 5 5 5
3 3 3 1 2 4 4 4 5 5 8 8 9 10 12 11 11 7 3 1 1 1 1 3 2 1 3 4 3 2 3 3 2 4 5 5 6 6 5 5 5 4 4 4
2 1 2 3 3 3 4 5 7 7 8 7 7 10 11 10 10 7 4 2 1 1 1 3 3 2 2 3 2 3 3 1 1 2 3 4 4 4 4 4 4 4 4 4
2 2 1 3 4 4 5 6 6 6 5 6 7 8 7 8 8 7 4 3 1 1 1 2 2 2 2 2 4 4 2 1 0 1 1 2 3 4 4 4 3 3 3 3
5 6 4 5 5 4 3 5 5 5 6 7 5 7 7 7 7 6 5 4 3 3 3 2 1 2 2 0 3 3 1 0 1 1 0 1 1 2 4 3 5 5 5 4
7 6 6 4 3 2 2 4 5 5 5 6 7 6 6 6 6 7 6 5 4 5 5 3 3 4 4 2 2 3 2 1 0 1 1 0 1 1 0 2 2 4 5 6
6 5 3 2 1 1 2 4 5 5 6 6 6 6 6 6 7 8 8 7 6 6 6 5 4 5 5 3 3 3 3 1 1 1 1 1 0 1 1 0 2 3 4 6
6 6 5 2 1 1 2 3 4 6 6 7 6 6 7 8 8 9 9 8 6 4 5 5 5 5 4 4 5 4 3 1 1 1 1 1 2 2 2 2 2 2 3 4
7 6 5 3 1 1 2 2 3 5 6 6 6 7 8 7 7 8 8 7 6 6 6 5 6 5 5 5 5 4 2 3 2 2 2 2 2 2 2 2 2 2 3 3
9 7 5 2 1 1 2 2 3 4 5 6 6 7 8 7 7 8 9 9 7 7 6 5 5 4 6 6 6 4 3 2 3 2 2 2 2 2 2 2 2 2 2 3
9 8 7 5 4 3 3 3 4 5 5 5 6 6 7 8 9 9 10 9 8 7 6 5 4 4 5 6 5 4 4 3 2 2 2 2 2 2 3 3 2 2 2 3
9 8 7 5 4 3 3 3 4 5 5 5 5 6 6 7 7 8 8 7 8 8 9 8 4 5 5 6 6 4 4 4 2 2 2 3 3 2 3 3 2 2 2 2
9 8 6 5 4 3 3 4 4 5 5 4 4 6 7 8 8 8 7 6 4 5 8 7 1 4 5 6 7 4 5 4 4 3 2 2 3 3 2 2 2 2 2 2
9 7 6 5 4 3 3 3 3 4 4 4 4 5 6 7 8 7 6 5 7 8 8 7 1 2 4 5 6 4 5 4 4 3 3 3 3 3 3 3 3 3 2 2
8 7 7 6 5 4 3 2 3 3 3 4 5 5 6 7 7 7 5 4 6 11 7 3 2 2 5 7 4 4 5 4 4 3 3 3 4 4 3 3 3 2 3 3
8 7 6 6 6 5 3 2 2 2 3 4 4 5 5 5 5 5 7 6 7 11 7 4 5 5 8 6 4 5 5 5 4 4 4 4 4 4 4 4 3 3 3 3
8 7 7 6 5 4 3 4 3 3 3 4 4 5 4 4 5 4 5 10 12 12 6 6 8 5 9 4 4 5 5 5 4 4 4 4 4 4 4 4 3 3 3 4
8 7 6 6 5 5 5 4 3 3 3 3 5 6 4 3 4 6 7 8 11 10 6 6 6 4 5 4 4 5 5 5 5 5 4 4 4 4 4 4 4 4 3 3
8 6 6 6 6 5 4 4 3 3 3 3 4 4 4 4 5 5 5 7 9 9 6 4 3 2 3 4 4 5 5 5 5 5 5 5 5 5 5 5 5 4 4 4
7 5 4 4 4 4 4 4 4 4 4 4 4 4 4 5 5 5 6 6 6 6 5 4 3 3 3 3 3 4 5 5 5 5 5 5 5 5 5 6 5 4 4 4
Wind_Direction
53 82 72 45 24 27 44 54 73 69 39 1 347 344 355 6 14 19 20 21 19 14 11 10 4 354 334 241 177 149 136 136 170 235 237 236 236 232 228 219 219 219 219 227
66 88 76 47 22 17 30 35 43 44 25 350 344 351 10 16 18 22 22 25 28 34 40 39 35 36 39 45 68 99 105 107 101 331 306 266 248 239 235 233 235 227 224 223
16 47 56 33 4 0 21 37 26 27 356 342 349 348 358 9 11 17 22 24 27 33 39 38 36 44 48 50 59 68 69 62 55 45 35 19 13 8 294 263 247 237 233 224
44 45 56 319 290 326 349 50 31 11 353 350 343 325 317 7 2 359 8 23 29 36 45 46 47 51 56 56 60 64 62 56 47 43 37 26 26 20 358 325 270 244 239 230
63 77 91 328 337 343 338 23 20 356 348 348 342 334 332 352 352 342 352 24 37 44 54 52 47 50 59 56 57 59 54 48 41 42 37 27 18 2 350 349 342 307 268 236
57 75 51 307 313 314 231 5 6 348 340 341 351 7 331 329 332 330 348 38 51 49 51 50 41 50 55 48 50 50 48 44 35 35 32 19 4 353 348 354 356 360 10 4
58 79 321 275 306 346 28 314 316 315 316 323 330 279 289 309 319 321 331 61 68 61 51 38 41 53 45 30 19 14 40 44 32 21 15 11 4 2 4 15 26 31 36 29
58 53 294 303 25 40 256 262 276 289 293 298 298 300 310 320 325 326 325 67 76 67 36 0 32 52 34 2 330 6 52 52 35 21 18 20 27 26 25 32 38 31 33 28
172 203 236 206 211 236 234 261 274 278 288 296 304 309 318 322 327 326 306 258 98 91 344 334 348 29 12 331 338 67 72 64 41 36 34 31 38 36 32 30 36 29 29 24
107 203 199 217 253 266 259 257 271 278 285 292 298 306 316 324 336 338 323 300 303 136 295 313 319 317 321 338 25 104 108 113 56 58 49 40 37 35 40 28 24 25 22 11
160 213 221 281 290 287 290 294 295 298 294 294 302 311 316 326 333 334 321 302 280 205 233 292 300 284 314 18 63 100 129 151 65 64 79 65 53 39 37 38 26 19 6 353
199 210 191 248 272 289 309 315 316 320 323 323 322 320 325 328 331 333 327 312 291 264 255 270 264 251 267 13 100 113 129 218 321 341 51 119 111 63 40 36 31 33 23 8
177 192 192 228 270 312 330 333 334 334 328 327 328 328 331 327 325 329 327 320 286 263 255 249 235 234 238 219 117 117 135 150 51 2 359 221 197 191 316 356 3 16 15 15
174 161 172 210 259 323 351 344 344 341 332 327 325 328 332 330 327 331 325 313 294 268 256 246 234 235 227 195 140 134 142 133 117 39 17 24 88 161 166 86 14 344 338 347
179 167 174 179 98 22 4 355 355 342 334 332 331 336 339 338 331 324 319 319 317 292 264 249 239 239 208 171 149 149 153 151 90 48 60 75 86 85 78 75 56 6 350 349
166 146 136 117 58 345 349 356 342 329 328 327 333 335 333 327 320 318 324 332 331 306 278 256 245 232 184 165 152 152 167 171 133 88 75 89 98 99 91 85 68 41 21 358
148 153 151 159 237 277 293 301 303 308 315 322 323 326 331 334 338 340 338 333 320 299 282 260 250 220 176 166 158 160 163 159 125 98 91 107 117 124 123 115 98 62 15 5
162 166 171 179 199 235 279 300 305 311 308 307 318 332 339 341 338 332 328 328 334 334 323 298 261 191 171 165 157 155 154 154 145 135 119 110 117 128 132 128 117 87 30 31
156 163 174 186 197 206 234 271 288 298 304 315 329 331 326 325 324 322 326 339 353 345 325 318 275 175 167 167 151 145 151 153 147 138 123 113 111 121 132 136 128 106 83 63
160 165 176 194 199 202 240 271 288 300 307 315 329 333 332 329 328 329 332 335 328 312 310 316 261 169 169 164 148 140 147 153 153 148 133 124 129 133 136 139 134 123 108 96
165 172 185 198 209 224 247 272 286 296 303 316 326 323 319 318 324 331 336 333 324 331 336 344 358 183 175 160 147 138 143 148 151 153 150 146 143 141 140 136 134 133 129 119
169 179 195 201 205 224 251 266 276 284 299 313 320 323 327 327 329 329 318 290 302 323 331 324 317 225 186 161 145 144 147 150 150 150 151 152 153 155 155 151 144 139 135 132
170 181 195 202 203 213 240 263 260 261 279 293 304 313 316 310 309 319 320 311 313 318 318 295 293 260 181 159 153 153 155 156 157 160 162 162 163 163 161 158 153 145 137 131
172 182 196 201 193 194 224 246 248 255 266 277 284 295 303 311 311 300 289 303 313 316 308 296 298 230 172 162 160 160 163 164 163 164 162 158 159 159 158 156 152 147 140 134
175 182 188 185 191 208 221 229 247 270 283 286 293 297 294 278 280 297 307 311 318 325 319 313 307 201 172 167 169 169 172 175 170 164 162 160 161 160 160 159 155 148 143 140
175 182 190 195 198 202 202 203 218 241 247 267 284 289 294 298 301 305 309 315 323 330 328 315 304 207 186 184 183 181 178 176 172 167 167 166 166 162 161 162 159 154 149 146
179 181 187 203 215 207 200 199 210 225 221 224 255 276 289 301 309 313 316 320 327 329 326 315 292 247 217 203 195 187 179 172 169 168 167 167 167 168 167 164 160 155 151 151